Flag for French Guiana Weather past 2 weeks in Cayenne, French Guiana

Now
86 °F

Partly sunny.


Feels Like: 95 °F
Forecast: 78 / 85 °F
Wind: 8 mph from East

Location: Cayenne / Rochambeau

Current Time: Aug 31, 2015 at 10:30:18 AM

Latest Report: Aug 31, 2015 at 10:00 AM


Visibility: N/A

Pressure: 29.98 "Hg

Humidity: 70%

Dew point: 75 °F

Location of CayenneLocation

Historic Weather in Cayenne — Graph

°F

Cayenne temperature yesterday

Maximum temperature yesterday: 90 °F (at 12:00 PM)
Minimum temperature yesterday: 73 °F (at 4:00 AM)
Average temperature yesterday: 81 °F

Past Weeks' High & Low Weather Summary

 TemperatureHumidityPressure
High91 °F (Aug 27, 2:00 PM)100% (Aug 17, 3:30 AM)29.98 "Hg (Aug 17, 3:30 AM)
Low72 °F (Aug 19, 4:00 AM)55% (Aug 23, 1:00 PM)29.80 "Hg (Aug 22, 3:00 PM)
Average80 °F84%29.89 "Hg
* Reported Aug 16 9:00 AM — Aug 31 9:00 AM, Cayenne, Weather by CustomWeather, © 2015

Note: Actual official high and low records may vary slightly from our data, if they occured in-between our weather recording intervals... More about our weather records

Advertising

Cayenne weather history for previous 24 hours

 ConditionsComfort  
Time TempWeatherWind HumidityBarometerVisibility
9:00 AM
Mon, Aug 31
82 °FBroken clouds.5 mph79%29.98 "HgN/A
8:30 AM81 °FPassing clouds.No wind84%29.98 "HgN/A
8:00 AM77 °FScattered clouds.No wind94%29.95 "HgN/A
7:30 AM75 °FPassing clouds.No wind100%29.95 "HgN/A
7:00 AM73 °FPartly sunny.No wind100%29.95 "HgN/A
6:30 AM73 °FPartly sunny.No wind100%29.95 "HgN/A
6:00 AM73 °FPassing clouds.No wind100%29.95 "HgN/A
5:30 AM73 °FPassing clouds.No wind100%29.92 "HgN/A
5:00 AM73 °FPassing clouds.No wind100%29.92 "HgN/A
4:30 AM73 °FPassing clouds.No wind94%29.92 "HgN/A
4:00 AM73 °FMild.No wind100%29.92 "HgN/A
3:30 AM73 °FMild.No wind100%29.92 "HgN/A
3:00 AM73 °FMild.No wind100%29.92 "HgN/A
2:30 AM75 °FPassing clouds.No wind94%29.92 "HgN/A
2:00 AM75 °FPassing clouds.No wind94%29.95 "HgN/A
1:30 AM75 °FMild.No wind94%29.95 "HgN/A
1:00 AM77 °FPassing clouds.No wind89%29.95 "HgN/A
12:30 AM77 °FPassing clouds.No wind89%29.95 "HgN/A
12:00 AM77 °FWarm.2 mph89%29.95 "HgN/A
11:30 PM
Sun, Aug 30
79 °FWarm.2 mph84%29.95 "HgN/A
11:00 PM79 °FWarm.2 mph84%29.95 "HgN/A
10:30 PM79 °FWarm.3 mph84%29.95 "HgN/A
10:00 PM81 °FWarm.3 mph79%29.95 "HgN/A
9:30 PM81 °FWarm.7 mph84%29.95 "HgN/A
9:00 PM81 °FWarm.6 mph84%29.92 "HgN/A
8:30 PM81 °FWarm.8 mph84%29.92 "HgN/A
8:00 PM81 °FWarm.8 mph84%29.92 "HgN/A
7:30 PM81 °FWarm.7 mph79%29.92 "HgN/A
7:00 PM82 °FWarm.7 mph74%29.89 "HgN/A
6:30 PM82 °FWarm.7 mph74%29.89 "HgN/A
6:00 PM84 °FWarm.9 mph70%29.89 "HgN/A
5:30 PM86 °FWarm.12 mph70%29.89 "HgN/A
4:30 PM88 °FBroken clouds.16 mph70%29.89 "HgN/A
4:00 PM88 °FPartly sunny.15 mph70%29.89 "HgN/A
3:30 PM88 °FPartly sunny.14 mph70%29.89 "HgN/A
3:00 PM88 °FBroken clouds.13 mph70%29.89 "HgN/A
2:30 PM88 °FPartly sunny.13 mph70%29.89 "HgN/A
2:00 PM90 °FBroken clouds.16 mph67%29.92 "HgN/A
1:30 PM90 °FBroken clouds.16 mph67%29.92 "HgN/A
1:00 PM88 °FBroken clouds.10 mph66%29.95 "HgN/A
12:30 PM88 °FPartly sunny.9 mph66%29.95 "HgN/A
12:00 PM90 °FPartly sunny.10 mph63%29.95 "HgN/A
11:30 AM88 °FPartly sunny.7 mph66%29.98 "HgN/A
11:00 AM88 °FBroken clouds.7 mph66%29.98 "HgN/A
10:30 AM86 °FBroken clouds.8 mph70%29.98 "HgN/A
10:00 AM84 °FBroken clouds.8 mph74%29.98 "HgN/A
Weather by CustomWeather, © 2015

See weather overviewHow to use our weather pages